This is the latest recevied weather packets stored in our database for station/object BM2MWA-13. If no packets are shown the sender has not sent any weather packets the latest 10 day(s).
| Time | Temp. | Humidity | Pressure | Rain* | Wind** | Luminosity | Snow |
|---|---|---|---|---|---|---|---|
| 1777974424 | 20.56° C | 95% | 1010.5 hPa | 6.1 mm | - | - | - |
| 1777973823 | 20.56° C | 95% | 1010.2 hPa | 5.08 mm | - | - | - |
| 1777973224 | 20.56° C | 94% | 1010.3 hPa | 4.06 mm | - | - | - |
| 1777972623 | 20.56° C | 94% | 1010 hPa | 3.05 mm | - | - | - |
| 1777972024 | 20.56° C | 93% | 1009.8 hPa | 1.02 mm | - | - | - |
| 1777971423 | 20.56° C | 93% | 1009.9 hPa | 1.52 mm | - | - | - |
| 1777970823 | 20.56° C | 93% | 1009.9 hPa | 1.52 mm | - | - | - |
| 1777970224 | 20.56° C | 94% | 1009.8 hPa | 1.52 mm | - | - | - |
| 1777969624 | 20.56° C | 95% | 1009.7 hPa | 1.52 mm | - | - | - |
| 1777969023 | 20.56° C | 94% | 1009.8 hPa | 1.52 mm | - | - | - |
| 1777968423 | 20.56° C | 94% | 1009.9 hPa | 2.03 mm | - | - | - |
| 1777967824 | 20.56° C | 95% | 1010 hPa | 1.02 mm | - | - | - |
| 1777967224 | 21.11° C | 95% | 1010 hPa | 1.02 mm | - | - | - |
| 1777966624 | 20.56° C | 95% | 1009.9 hPa | 1.52 mm | - | - | - |
| 1777966023 | 20.56° C | 95% | 1010.1 hPa | 3.56 mm | - | - | - |
| 1777965423 | 20.56° C | 96% | 1010.3 hPa | 5.59 mm | - | - | - |
| 1777964824 | 20.56° C | 96% | 1010.6 hPa | 5.59 mm | - | - | - |
| 1777964224 | 20.56° C | 96% | 1010.6 hPa | 5.59 mm | - | - | - |
| 1777963624 | 20.56° C | 95% | 1010.7 hPa | 5.08 mm | - | - | - |
| 1777963024 | 20.56° C | 94% | 1010.6 hPa | 4.57 mm | - | - | - |
| 1777962423 | 20.56° C | 93% | 1010.6 hPa | 2.54 mm | - | - | - |
| 1777961824 | 21.11° C | 92% | 1010.7 hPa | 1.02 mm | - | - | - |
| 1777961224 | 21.11° C | 92% | 1010.8 hPa | 0.51 mm | - | - | - |
| 1777960623 | 21.11° C | 92% | 1010.8 hPa | 0.51 mm | - | - | - |
| 1777960024 | 21.11° C | 91% | 1011 hPa | 0.51 mm | - | - | - |
* Rain latest hour (hover to see other rain measurements)
** Current wind speed in m/s (hover to see current wind gust speed)